Time,TemperatureF,DewpointF,PressureIn,WindDirection,WindDirectionDegrees,WindSpeedMPH,WindSpeedGustMPH,Humidity,HourlyPrecipIn,Conditions,Clouds,dailyrainin,SoftwareType,DateUTC
2013-01-13 00:03:00,21.6,11.7,30.12,NW,312,12.0,16.0,65,0.00,,,0.00,meteohub,2013-01-13 06:03:00,
2013-01-13 00:08:00,21.0,10.8,30.12,WNW,294,6.0,16.0,64,0.00,,,0.00,meteohub,2013-01-13 06:08:00,
2013-01-13 00:13:00,20.8,10.9,30.11,WNW,302,5.0,13.0,65,0.00,,,0.00,meteohub,2013-01-13 06:13:00,
2013-01-13 00:18:00,20.7,11.1,30.11,NNW,336,4.0,13.0,66,0.00,,,0.00,meteohub,2013-01-13 06:18:00,
2013-01-13 00:23:00,20.7,11.1,30.12,NNW,336,4.0,15.0,66,0.00,,,0.00,meteohub,2013-01-13 06:23:00,
2013-01-13 00:28:00,20.5,11.3,30.11,North,5,5.0,15.0,67,0.00,,,0.00,meteohub,2013-01-13 06:28:00,
2013-01-13 00:33:00,20.5,11.3,30.10,West,279,5.0,15.0,67,0.00,,,0.00,meteohub,2013-01-13 06:33:00,
2013-01-13 00:38:00,20.5,11.7,30.10,NW,325,10.0,15.0,68,0.00,,,0.00,meteohub,2013-01-13 06:38:00,
2013-01-13 00:43:00,20.1,11.3,30.11,NW,315,4.0,15.0,68,0.00,,,0.00,meteohub,2013-01-13 06:43:00,
2013-01-13 00:48:00,20.1,11.7,30.12,NW,313,4.0,15.0,69,0.00,,,0.00,meteohub,2013-01-13 06:48:00,
2013-01-13 00:53:00,19.9,11.1,30.12,NNW,327,4.0,16.0,68,0.00,,,0.00,meteohub,2013-01-13 06:53:00,
2013-01-13 00:58:00,19.8,11.3,30.12,NW,306,7.0,16.0,69,0.00,,,0.00,meteohub,2013-01-13 06:58:00,
2013-01-13 01:03:00,19.6,10.4,30.12,NW,309,6.0,15.0,67,0.00,,,0.00,meteohub,2013-01-13 07:03:00,
2013-01-13 01:08:00,19.6,10.4,30.13,North,349,7.0,15.0,67,0.00,,,0.00,meteohub,2013-01-13 07:08:00,
2013-01-13 01:13:00,19.4,10.2,30.14,NW,321,14.0,17.0,67,0.00,,,0.00,meteohub,2013-01-13 07:13:00,
2013-01-13 01:18:00,19.0,9.5,30.14,WNW,297,5.0,17.0,66,0.00,,,0.00,meteohub,2013-01-13 07:18:00,
2013-01-13 01:23:00,19.0,9.5,30.14,NW,311,12.0,15.0,66,0.00,,,0.00,meteohub,2013-01-13 07:23:00,
2013-01-13 01:28:00,18.9,9.3,30.14,NNW,329,6.0,15.0,66,0.00,,,0.00,meteohub,2013-01-13 07:28:00,
2013-01-13 01:33:00,18.7,9.1,30.14,NNW,330,6.0,15.0,66,0.00,,,0.00,meteohub,2013-01-13 07:33:00,
2013-01-13 01:38:00,18.7,9.5,30.14,NNW,329,7.0,15.0,67,0.00,,,0.00,meteohub,2013-01-13 07:38:00,
2013-01-13 01:43:00,18.7,9.5,30.14,NW,321,10.0,15.0,67,0.00,,,0.00,meteohub,2013-01-13 07:43:00,
2013-01-13 01:48:00,18.5,9.3,30.13,NNW,342,4.0,15.0,67,0.00,,,0.00,meteohub,2013-01-13 07:48:00,
2013-01-13 01:53:00,18.5,9.3,30.14,WNW,302,5.0,15.0,67,0.00,,,0.00,meteohub,2013-01-13 07:53:00,
2013-01-13 01:58:00,18.5,9.0,30.14,WNW,282,3.0,15.0,66,0.00,,,0.00,meteohub,2013-01-13 07:58:00,
2013-01-13 02:03:00,18.5,9.0,30.14,North,351,3.0,15.0,66,0.00,,,0.00,meteohub,2013-01-13 08:03:00,
2013-01-13 02:08:00,18.5,9.3,30.14,NNE,24,2.0,15.0,67,0.00,,,0.00,meteohub,2013-01-13 08:08:00,
2013-01-13 02:13:00,18.3,9.0,30.14,West,273,2.0,14.0,66,0.00,,,0.00,meteohub,2013-01-13 08:13:00,
2013-01-13 02:18:00,18.1,8.8,30.15,NNE,22,3.0,14.0,66,0.00,,,0.00,meteohub,2013-01-13 08:18:00,
2013-01-13 02:23:00,18.1,8.8,30.15,NNW,329,4.0,12.0,66,0.00,,,0.00,meteohub,2013-01-13 08:23:00,
2013-01-13 02:28:00,18.1,8.8,30.14,NNW,333,7.0,12.0,66,0.00,,,0.00,meteohub,2013-01-13 08:28:00,
2013-01-13 02:33:00,18.0,8.8,30.14,NE,34,1.0,16.0,67,0.00,,,0.00,meteohub,2013-01-13 08:33:00,
2013-01-13 02:38:00,18.0,8.8,30.15,NNW,335,5.0,16.0,67,0.00,,,0.00,meteohub,2013-01-13 08:38:00,
2013-01-13 02:43:00,18.0,8.8,30.16,NW,311,9.0,15.0,67,0.00,,,0.00,meteohub,2013-01-13 08:43:00,
2013-01-13 02:48:00,17.8,8.6,30.17,NNW,338,4.0,15.0,67,0.00,,,0.00,meteohub,2013-01-13 08:48:00,
2013-01-13 02:53:00,17.8,8.6,30.17,NW,307,3.0,16.0,67,0.00,,,0.00,meteohub,2013-01-13 08:53:00,
2013-01-13 02:58:00,17.8,8.6,30.17,WNW,297,2.0,16.0,67,0.00,,,0.00,meteohub,2013-01-13 08:58:00,
2013-01-13 03:03:00,17.8,9.0,30.17,NNW,348,7.0,11.0,68,0.00,,,0.00,meteohub,2013-01-13 09:03:00,
2013-01-13 03:08:00,17.8,9.0,30.17,NE,38,4.0,11.0,68,0.00,,,0.00,meteohub,2013-01-13 09:08:00,
2013-01-13 03:13:00,17.8,9.3,30.16,NW,306,4.0,11.0,69,0.00,,,0.00,meteohub,2013-01-13 09:13:00,
2013-01-13 03:18:00,17.8,9.3,30.16,NW,307,4.0,11.0,69,0.00,,,0.00,meteohub,2013-01-13 09:18:00,
2013-01-13 03:23:00,17.6,8.8,30.17,NW,313,3.0,9.0,68,0.00,,,0.00,meteohub,2013-01-13 09:23:00,
2013-01-13 03:28:00,17.4,9.0,30.17,NW,315,6.0,9.0,69,0.00,,,0.00,meteohub,2013-01-13 09:28:00,
2013-01-13 03:33:00,17.2,8.4,30.17,NW,311,7.0,13.0,68,0.00,,,0.00,meteohub,2013-01-13 09:33:00,
2013-01-13 03:38:00,17.2,8.8,30.17,WNW,303,4.0,13.0,69,0.00,,,0.00,meteohub,2013-01-13 09:38:00,
2013-01-13 03:43:00,17.1,8.6,30.17,WNW,287,9.0,12.0,69,0.00,,,0.00,meteohub,2013-01-13 09:43:00,
2013-01-13 03:48:00,17.1,8.6,30.17,NNW,332,7.0,12.0,69,0.00,,,0.00,meteohub,2013-01-13 09:48:00,
2013-01-13 03:53:00,16.9,8.4,30.18,WNW,299,1.0,12.0,69,0.00,,,0.00,meteohub,2013-01-13 09:53:00,
2013-01-13 03:58:00,16.9,8.4,30.19,WNW,302,3.0,12.0,69,0.00,,,0.00,meteohub,2013-01-13 09:58:00,
2013-01-13 04:03:00,16.7,8.2,30.19,NW,311,7.0,12.0,69,0.00,,,0.00,meteohub,2013-01-13 10:03:00,
2013-01-13 04:08:00,16.5,8.1,30.19,North,355,3.0,12.0,69,0.00,,,0.00,meteohub,2013-01-13 10:08:00,
2013-01-13 04:13:00,16.5,8.4,30.18,NW,306,7.0,12.0,70,0.00,,,0.00,meteohub,2013-01-13 10:13:00,
2013-01-13 04:18:00,16.5,8.8,30.18,WNW,284,5.0,12.0,71,0.00,,,0.00,meteohub,2013-01-13 10:18:00,
2013-01-13 04:23:00,16.5,8.4,30.18,WNW,292,6.0,12.0,70,0.00,,,0.00,meteohub,2013-01-13 10:23:00,
2013-01-13 04:28:00,16.3,8.6,30.17,NW,306,6.0,12.0,71,0.00,,,0.00,meteohub,2013-01-13 10:28:00,
2013-01-13 04:33:00,16.3,8.6,30.17,NNW,335,13.0,14.0,71,0.00,,,0.00,meteohub,2013-01-13 10:33:00,
2013-01-13 04:38:00,16.2,8.4,30.17,NW,317,7.0,14.0,71,0.00,,,0.00,meteohub,2013-01-13 10:38:00,
2013-01-13 04:43:00,16.2,8.8,30.18,NW,309,11.0,17.0,72,0.00,,,0.00,meteohub,2013-01-13 10:43:00,
2013-01-13 04:48:00,16.2,8.8,30.17,NNW,328,10.0,17.0,72,0.00,,,0.00,meteohub,2013-01-13 10:48:00,
2013-01-13 04:53:00,16.2,8.8,30.17,NW,321,5.0,17.0,72,0.00,,,0.00,meteohub,2013-01-13 10:53:00,
2013-01-13 04:58:00,16.2,9.0,30.17,WNW,303,12.0,17.0,73,0.00,,,0.00,meteohub,2013-01-13 10:58:00,
2013-01-13 05:03:00,16.2,9.0,30.17,NNW,342,5.0,17.0,73,0.00,,,0.00,meteohub,2013-01-13 11:03:00,
2013-01-13 05:08:00,16.2,9.0,30.18,WNW,297,4.0,17.0,73,0.00,,,0.00,meteohub,2013-01-13 11:08:00,
2013-01-13 05:13:00,16.0,8.8,30.18,WNW,300,10.0,14.0,73,0.00,,,0.00,meteohub,2013-01-13 11:13:00,
2013-01-13 05:18:00,16.0,9.1,30.19,NW,322,4.0,14.0,74,0.00,,,0.00,meteohub,2013-01-13 11:18:00,
2013-01-13 05:23:00,16.2,9.3,30.19,NW,309,1.0,14.0,74,0.00,,,0.00,meteohub,2013-01-13 11:23:00,
2013-01-13 05:28:00,16.0,8.8,30.19,WNW,297,4.0,14.0,73,0.00,,,0.00,meteohub,2013-01-13 11:28:00,
2013-01-13 05:33:00,16.0,8.8,30.19,NW,309,2.0,12.0,73,0.00,,,0.00,meteohub,2013-01-13 11:33:00,
2013-01-13 05:38:00,15.8,8.6,30.19,North,9,5.0,12.0,73,0.00,,,0.00,meteohub,2013-01-13 11:38:00,
2013-01-13 05:43:00,15.6,8.6,30.20,NW,317,6.0,12.0,73,0.00,,,0.00,meteohub,2013-01-13 11:43:00,
2013-01-13 05:48:00,15.4,8.4,30.20,NW,317,3.0,12.0,73,0.00,,,0.00,meteohub,2013-01-13 11:48:00,
2013-01-13 05:53:00,15.3,7.9,30.20,WNW,294,13.0,15.0,72,0.00,,,0.00,meteohub,2013-01-13 11:53:00,
2013-01-13 05:58:00,15.1,7.7,30.21,NW,321,5.0,15.0,72,0.00,,,0.00,meteohub,2013-01-13 11:58:00,
2013-01-13 06:03:00,15.1,7.7,30.21,NW,318,7.0,15.0,72,0.00,,,0.00,meteohub,2013-01-13 12:03:00,
2013-01-13 06:08:00,15.1,8.1,30.22,NW,323,1.0,15.0,73,0.00,,,0.00,meteohub,2013-01-13 12:08:00,
2013-01-13 06:13:00,15.1,8.1,30.22,NW,318,1.0,13.0,73,0.00,,,0.00,meteohub,2013-01-13 12:13:00,
2013-01-13 06:18:00,15.1,8.1,30.22,NNW,329,9.0,13.0,73,0.00,,,0.00,meteohub,2013-01-13 12:18:00,
2013-01-13 06:24:00,14.9,7.9,30.23,NNW,348,3.0,13.0,73,0.00,,,0.00,meteohub,2013-01-13 12:24:00,
2013-01-13 06:29:00,14.9,8.1,30.24,WNW,302,4.0,13.0,74,0.00,,,0.00,meteohub,2013-01-13 12:29:00,
2013-01-13 06:34:00,14.9,8.1,30.23,NNW,345,5.0,13.0,74,0.00,,,0.00,meteohub,2013-01-13 12:34:00,
2013-01-13 06:39:00,14.7,7.7,30.24,NNW,328,2.0,11.0,73,0.00,,,0.00,meteohub,2013-01-13 12:39:00,
2013-01-13 06:44:00,14.7,7.7,30.24,NW,319,5.0,11.0,73,0.00,,,0.00,meteohub,2013-01-13 12:44:00,
2013-01-13 06:49:00,14.5,7.5,30.24,West,274,5.0,11.0,73,0.00,,,0.00,meteohub,2013-01-13 12:49:00,
2013-01-13 06:54:00,14.4,7.3,30.25,NNW,331,6.0,11.0,73,0.00,,,0.00,meteohub,2013-01-13 12:54:00,
2013-01-13 06:59:00,14.2,7.2,30.24,North,0,5.0,11.0,73,0.00,,,0.00,meteohub,2013-01-13 12:59:00,
2013-01-13 07:04:00,14.0,7.0,30.24,NW,326,4.0,11.0,73,0.00,,,0.00,meteohub,2013-01-13 13:04:00,
2013-01-13 07:09:00,14.2,7.3,30.24,North,5,3.0,13.0,74,0.00,,,0.00,meteohub,2013-01-13 13:09:00,
2013-01-13 07:14:00,14.2,7.3,30.25,NNW,335,4.0,13.0,74,0.00,,,0.00,meteohub,2013-01-13 13:14:00,
2013-01-13 07:19:00,14.0,7.2,30.25,North,5,2.0,13.0,74,0.00,,,0.00,meteohub,2013-01-13 13:19:00,
2013-01-13 07:24:00,14.2,7.3,30.25,NNE,15,5.0,13.0,74,0.00,,,0.00,meteohub,2013-01-13 13:24:00,
2013-01-13 07:29:00,14.2,7.3,30.26,NNE,17,5.0,13.0,74,0.00,,,0.00,meteohub,2013-01-13 13:29:00,
2013-01-13 07:34:00,13.8,6.8,30.26,North,355,9.0,13.0,73,0.00,,,0.00,meteohub,2013-01-13 13:34:00,
2013-01-13 07:39:00,13.8,6.8,30.25,North,355,3.0,11.0,73,0.00,,,0.00,meteohub,2013-01-13 13:39:00,
2013-01-13 07:44:00,13.8,6.8,30.26,NNW,338,8.0,11.0,73,0.00,,,0.00,meteohub,2013-01-13 13:44:00,
2013-01-13 07:49:00,13.8,6.8,30.25,WNW,301,7.0,11.0,73,0.00,,,0.00,meteohub,2013-01-13 13:49:00,
2013-01-13 07:54:00,13.6,6.3,30.25,NNW,331,6.0,11.0,72,0.00,,,0.00,meteohub,2013-01-13 13:54:00,
2013-01-13 07:59:00,13.8,6.8,30.25,WNW,302,1.0,13.0,73,0.00,,,0.00,meteohub,2013-01-13 13:59:00,
2013-01-13 08:04:00,13.8,6.8,30.26,NW,317,5.0,13.0,73,0.00,,,0.00,meteohub,2013-01-13 14:04:00,
2013-01-13 08:09:00,13.8,6.8,30.27,NNW,333,5.0,13.0,73,0.00,,,0.00,meteohub,2013-01-13 14:09:00,
2013-01-13 08:14:00,13.6,6.3,30.27,North,349,4.0,13.0,72,0.00,,,0.00,meteohub,2013-01-13 14:14:00,
2013-01-13 08:19:00,13.8,6.8,30.27,SW,228,1.0,14.0,73,0.00,,,0.00,meteohub,2013-01-13 14:19:00,
2013-01-13 08:24:00,13.8,6.4,30.27,NW,317,6.0,14.0,72,0.00,,,0.00,meteohub,2013-01-13 14:24:00,
2013-01-13 08:29:00,13.8,6.8,30.27,NW,318,8.0,14.0,73,0.00,,,0.00,meteohub,2013-01-13 14:29:00,
2013-01-13 08:34:00,13.8,6.8,30.28,WNW,297,10.0,15.0,73,0.00,,,0.00,meteohub,2013-01-13 14:34:00,
2013-01-13 08:39:00,13.6,6.6,30.28,NNW,327,9.0,15.0,73,0.00,,,0.00,meteohub,2013-01-13 14:39:00,
2013-01-13 08:44:00,13.5,6.4,30.28,NW,313,7.0,15.0,73,0.00,,,0.00,meteohub,2013-01-13 14:44:00,
2013-01-13 08:49:00,13.6,6.6,30.29,NNW,331,4.0,15.0,73,0.00,,,0.00,meteohub,2013-01-13 14:49:00,
2013-01-13 08:54:00,13.5,6.4,30.28,NNW,336,3.0,15.0,73,0.00,,,0.00,meteohub,2013-01-13 14:54:00,
2013-01-13 08:59:00,13.8,7.2,30.28,NW,309,3.0,15.0,74,0.00,,,0.00,meteohub,2013-01-13 14:59:00,
2013-01-13 09:04:00,14.0,7.2,30.28,WNW,293,4.0,15.0,74,0.00,,,0.00,meteohub,2013-01-13 15:04:00,
2013-01-13 09:09:00,14.0,7.2,30.29,NW,323,4.0,15.0,74,0.00,,,0.00,meteohub,2013-01-13 15:09:00,
2013-01-13 09:14:00,14.2,7.3,30.29,NW,313,4.0,15.0,74,0.00,,,0.00,meteohub,2013-01-13 15:14:00,
2013-01-13 09:19:00,14.4,7.5,30.30,West,279,5.0,15.0,74,0.00,,,0.00,meteohub,2013-01-13 15:19:00,
2013-01-13 09:24:00,14.4,7.5,30.30,WNW,286,5.0,15.0,74,0.00,,,0.00,meteohub,2013-01-13 15:24:00,
2013-01-13 09:29:00,14.4,7.5,30.29,NNW,331,13.0,14.0,74,0.00,,,0.00,meteohub,2013-01-13 15:29:00,
2013-01-13 09:34:00,14.4,7.3,30.29,West,270,7.0,14.0,73,0.00,,,0.00,meteohub,2013-01-13 15:34:00,
2013-01-13 09:39:00,14.4,6.6,30.29,NNW,327,5.0,14.0,71,0.00,,,0.00,meteohub,2013-01-13 15:39:00,
2013-01-13 09:44:00,14.5,6.8,30.30,WNW,298,11.0,14.0,71,0.00,,,0.00,meteohub,2013-01-13 15:44:00,
2013-01-13 09:49:00,14.7,7.0,30.30,West,276,5.0,14.0,71,0.00,,,0.00,meteohub,2013-01-13 15:49:00,
2013-01-13 09:54:00,15.1,7.0,30.30,NW,319,4.0,17.0,70,0.00,,,0.00,meteohub,2013-01-13 15:54:00,
2013-01-13 09:59:00,15.3,7.5,30.30,NNW,328,7.0,17.0,71,0.00,,,0.00,meteohub,2013-01-13 15:59:00,
2013-01-13 10:04:00,15.4,7.2,30.30,WNW,302,9.0,17.0,69,0.00,,,0.00,meteohub,2013-01-13 16:04:00,
2013-01-13 10:09:00,15.4,7.2,30.30,WNW,284,6.0,15.0,69,0.00,,,0.00,meteohub,2013-01-13 16:09:00,
2013-01-13 10:14:00,15.8,7.5,30.30,NNW,340,6.0,15.0,69,0.00,,,0.00,meteohub,2013-01-13 16:14:00,
2013-01-13 10:19:00,15.8,7.2,30.30,NW,319,9.0,15.0,68,0.00,,,0.00,meteohub,2013-01-13 16:19:00,
2013-01-13 10:24:00,15.8,6.8,30.30,WNW,284,13.0,16.0,67,0.00,,,0.00,meteohub,2013-01-13 16:24:00,
2013-01-13 10:29:00,16.0,7.0,30.30,WNW,291,5.0,16.0,67,0.00,,,0.00,meteohub,2013-01-13 16:29:00,
2013-01-13 10:34:00,16.2,7.2,30.30,WNW,296,2.0,16.0,67,0.00,,,0.00,meteohub,2013-01-13 16:34:00,
2013-01-13 10:39:00,16.5,7.5,30.31,NW,309,6.0,16.0,67,0.00,,,0.00,meteohub,2013-01-13 16:39:00,
2013-01-13 10:44:00,16.7,7.3,30.31,NNW,337,6.0,16.0,66,0.00,,,0.00,meteohub,2013-01-13 16:44:00,
2013-01-13 10:49:00,16.7,7.3,30.31,NW,320,7.0,16.0,66,0.00,,,0.00,meteohub,2013-01-13 16:49:00,
2013-01-13 10:54:00,16.9,7.9,30.31,WNW,293,3.0,14.0,67,0.00,,,0.00,meteohub,2013-01-13 16:54:00,
2013-01-13 10:59:00,17.2,7.9,30.31,WNW,294,10.0,14.0,66,0.00,,,0.00,meteohub,2013-01-13 16:59:00,
2013-01-13 11:04:00,17.2,7.9,30.31,NW,309,7.0,14.0,66,0.00,,,0.00,meteohub,2013-01-13 17:04:00,
2013-01-13 11:09:00,17.4,7.7,30.31,WNW,296,4.0,14.0,65,0.00,,,0.00,meteohub,2013-01-13 17:09:00,
2013-01-13 11:14:00,17.6,8.2,30.31,West,267,6.0,13.0,66,0.00,,,0.00,meteohub,2013-01-13 17:14:00,
2013-01-13 11:19:00,17.8,8.1,30.30,NW,318,5.0,13.0,65,0.00,,,0.00,meteohub,2013-01-13 17:19:00,
2013-01-13 11:24:00,18.0,8.6,30.30,NW,315,8.0,16.0,66,0.00,,,0.00,meteohub,2013-01-13 17:24:00,
2013-01-13 11:29:00,18.0,8.2,30.30,West,279,4.0,16.0,65,0.00,,,0.00,meteohub,2013-01-13 17:29:00,
2013-01-13 11:34:00,18.3,8.6,30.30,WNW,300,7.0,16.0,65,0.00,,,0.00,meteohub,2013-01-13 17:34:00,
2013-01-13 11:39:00,18.5,9.0,30.29,NNW,339,5.0,16.0,66,0.00,,,0.00,meteohub,2013-01-13 17:39:00,
2013-01-13 11:44:00,18.7,9.0,30.29,WNW,291,3.0,12.0,65,0.00,,,0.00,meteohub,2013-01-13 17:44:00,
2013-01-13 11:49:00,18.7,9.0,30.29,WSW,251,12.0,12.0,65,0.00,,,0.00,meteohub,2013-01-13 17:49:00,
2013-01-13 11:54:00,19.0,9.1,30.29,WNW,291,10.0,14.0,65,0.00,,,0.00,meteohub,2013-01-13 17:54:00,
2013-01-13 11:59:00,19.6,9.3,30.29,NW,321,6.0,14.0,64,0.00,,,0.00,meteohub,2013-01-13 17:59:00,
2013-01-13 12:04:00,19.8,9.1,30.29,West,281,7.0,15.0,63,0.00,,,0.00,meteohub,2013-01-13 18:04:00,
2013-01-13 12:09:00,19.9,9.3,30.28,WSW,255,6.0,15.0,63,0.00,,,0.00,meteohub,2013-01-13 18:09:00,
2013-01-13 12:14:00,20.1,9.5,30.28,WNW,302,5.0,15.0,63,0.00,,,0.00,meteohub,2013-01-13 18:14:00,
2013-01-13 12:19:00,20.5,9.9,30.28,NW,317,7.0,14.0,63,0.00,,,0.00,meteohub,2013-01-13 18:19:00,
2013-01-13 12:24:00,20.8,10.2,30.28,NNW,331,5.0,14.0,63,0.00,,,0.00,meteohub,2013-01-13 18:24:00,
2013-01-13 12:29:00,21.2,10.2,30.27,West,273,5.0,14.0,62,0.00,,,0.00,meteohub,2013-01-13 18:29:00,
2013-01-13 12:34:00,21.7,10.8,30.28,WNW,296,5.0,14.0,62,0.00,,,0.00,meteohub,2013-01-13 18:34:00,
2013-01-13 12:39:00,22.3,11.3,30.28,WNW,302,11.0,14.0,62,0.00,,,0.00,meteohub,2013-01-13 18:39:00,
2013-01-13 12:44:00,22.3,10.6,30.27,WNW,285,10.0,14.0,60,0.00,,,0.00,meteohub,2013-01-13 18:44:00,
2013-01-13 12:49:00,22.3,10.9,30.27,NW,305,10.0,14.0,61,0.00,,,0.00,meteohub,2013-01-13 18:49:00,
2013-01-13 12:54:00,22.5,10.8,30.27,WNW,288,4.0,14.0,60,0.00,,,0.00,meteohub,2013-01-13 18:54:00,
2013-01-13 12:59:00,22.8,10.9,30.27,WNW,293,4.0,14.0,60,0.00,,,0.00,meteohub,2013-01-13 18:59:00,
2013-01-13 13:04:00,23.2,10.9,30.26,WNW,290,4.0,12.0,59,0.00,,,0.00,meteohub,2013-01-13 19:04:00,
2013-01-13 13:09:00,23.2,10.6,30.27,WNW,292,7.0,12.0,58,0.00,,,0.00,meteohub,2013-01-13 19:09:00,
2013-01-13 13:14:00,23.0,10.4,30.26,WNW,285,9.0,12.0,58,0.00,,,0.00,meteohub,2013-01-13 19:14:00,
2013-01-13 13:19:00,23.2,10.6,30.27,WNW,283,5.0,13.0,58,0.00,,,0.00,meteohub,2013-01-13 19:19:00,
2013-01-13 13:24:00,23.4,10.8,30.27,SW,233,10.0,13.0,58,0.00,,,0.00,meteohub,2013-01-13 19:24:00,
2013-01-13 13:29:00,23.7,10.8,30.27,WNW,301,10.0,12.0,57,0.00,,,0.00,meteohub,2013-01-13 19:29:00,
2013-01-13 13:34:00,24.1,11.1,30.27,WNW,287,2.0,12.0,57,0.00,,,0.00,meteohub,2013-01-13 19:34:00,
2013-01-13 13:39:00,24.4,10.9,30.27,North,0,5.0,15.0,56,0.00,,,0.00,meteohub,2013-01-13 19:39:00,
2013-01-13 13:44:00,24.3,10.8,30.27,North,0,6.0,15.0,56,0.00,,,0.00,meteohub,2013-01-13 19:44:00,
2013-01-13 13:49:00,24.3,10.4,30.27,NW,319,5.0,16.0,55,0.00,,,0.00,meteohub,2013-01-13 19:49:00,
2013-01-13 13:54:00,24.4,10.2,30.27,NW,313,6.0,16.0,54,0.00,,,0.00,meteohub,2013-01-13 19:54:00,
2013-01-13 13:59:00,24.6,9.9,30.27,NW,313,8.0,16.0,53,0.00,,,0.00,meteohub,2013-01-13 19:59:00,
2013-01-13 14:04:00,24.6,10.4,30.27,West,273,2.0,16.0,54,0.00,,,0.00,meteohub,2013-01-13 20:04:00,
2013-01-13 14:09:00,25.0,10.8,30.27,NNW,327,3.0,15.0,54,0.00,,,0.00,meteohub,2013-01-13 20:09:00,
2013-01-13 14:14:00,25.5,10.8,30.27,NW,306,6.0,15.0,53,0.00,,,0.00,meteohub,2013-01-13 20:14:00,
2013-01-13 14:19:00,25.9,10.8,30.27,WNW,301,1.0,15.0,52,0.00,,,0.00,meteohub,2013-01-13 20:19:00,
2013-01-13 14:24:00,26.1,10.4,30.27,WNW,300,12.0,12.0,51,0.00,,,0.00,meteohub,2013-01-13 20:24:00,
2013-01-13 14:29:00,25.7,10.0,30.27,NW,306,5.0,14.0,51,0.00,,,0.00,meteohub,2013-01-13 20:29:00,
2013-01-13 14:34:00,25.9,9.9,30.27,NW,319,7.0,14.0,50,0.00,,,0.00,meteohub,2013-01-13 20:34:00,
2013-01-13 14:39:00,26.1,10.0,30.27,NW,319,7.0,14.0,50,0.00,,,0.00,meteohub,2013-01-13 20:39:00,
2013-01-13 14:44:00,25.9,9.3,30.27,West,275,8.0,14.0,49,0.00,,,0.00,meteohub,2013-01-13 20:44:00,
2013-01-13 14:49:00,26.2,9.7,30.27,NW,317,6.0,11.0,49,0.00,,,0.00,meteohub,2013-01-13 20:49:00,
2013-01-13 14:54:00,26.2,9.1,30.27,NW,320,5.0,11.0,48,0.00,,,0.00,meteohub,2013-01-13 20:54:00,
2013-01-13 14:59:00,26.2,8.8,30.27,WNW,287,5.0,11.0,47,0.00,,,0.00,meteohub,2013-01-13 20:59:00,
2013-01-13 15:04:00,26.2,9.1,30.27,WNW,298,3.0,13.0,48,0.00,,,0.00,meteohub,2013-01-13 21:04:00,
2013-01-13 15:09:00,26.6,9.5,30.27,West,268,4.0,13.0,48,0.00,,,0.00,meteohub,2013-01-13 21:09:00,
2013-01-13 15:14:00,26.6,9.1,30.27,WNW,294,5.0,13.0,47,0.00,,,0.00,meteohub,2013-01-13 21:14:00,
2013-01-13 15:19:00,26.8,8.8,30.28,NW,321,10.0,11.0,46,0.00,,,0.00,meteohub,2013-01-13 21:19:00,
2013-01-13 15:24:00,26.4,9.0,30.28,WNW,284,10.0,11.0,47,0.00,,,0.00,meteohub,2013-01-13 21:24:00,
2013-01-13 15:29:00,26.6,8.6,30.28,West,277,7.0,13.0,46,0.00,,,0.00,meteohub,2013-01-13 21:29:00,
2013-01-13 15:34:00,26.6,8.6,30.29,NW,315,7.0,13.0,46,0.00,,,0.00,meteohub,2013-01-13 21:34:00,
2013-01-13 15:39:00,26.6,8.6,30.29,WNW,290,2.0,13.0,46,0.00,,,0.00,meteohub,2013-01-13 21:39:00,
2013-01-13 15:44:00,26.6,8.6,30.30,NNW,330,5.0,12.0,46,0.00,,,0.00,meteohub,2013-01-13 21:44:00,
2013-01-13 15:49:00,27.0,9.0,30.30,WNW,292,4.0,12.0,46,0.00,,,0.00,meteohub,2013-01-13 21:49:00,
2013-01-13 15:54:00,27.0,8.4,30.30,NW,311,6.0,12.0,45,0.00,,,0.00,meteohub,2013-01-13 21:54:00,
2013-01-13 15:59:00,27.1,8.6,30.30,WNW,303,5.0,12.0,45,0.00,,,0.00,meteohub,2013-01-13 21:59:00,
2013-01-13 16:04:00,27.0,8.4,30.30,WNW,301,7.0,12.0,45,0.00,,,0.00,meteohub,2013-01-13 22:04:00,
2013-01-13 16:09:00,26.8,8.2,30.30,NW,309,6.0,13.0,45,0.00,,,0.00,meteohub,2013-01-13 22:09:00,
2013-01-13 16:14:00,27.0,8.4,30.30,NW,323,9.0,13.0,45,0.00,,,0.00,meteohub,2013-01-13 22:14:00,
2013-01-13 16:19:00,26.8,8.2,30.30,NW,313,2.0,13.0,45,0.00,,,0.00,meteohub,2013-01-13 22:19:00,
2013-01-13 16:24:00,27.0,7.9,30.30,WNW,299,4.0,14.0,44,0.00,,,0.00,meteohub,2013-01-13 22:24:00,
2013-01-13 16:29:00,27.0,8.4,30.31,NW,304,6.0,14.0,45,0.00,,,0.00,meteohub,2013-01-13 22:29:00,
2013-01-13 16:34:00,27.1,8.1,30.31,NW,307,6.0,14.0,44,0.00,,,0.00,meteohub,2013-01-13 22:34:00,
2013-01-13 16:39:00,27.0,7.9,30.31,WNW,293,11.0,12.0,44,0.00,,,0.00,meteohub,2013-01-13 22:39:00,
2013-01-13 16:44:00,26.8,7.3,30.31,West,279,4.0,12.0,43,0.00,,,0.00,meteohub,2013-01-13 22:44:00,
2013-01-13 16:49:00,27.0,7.9,30.31,NW,315,4.0,12.0,44,0.00,,,0.00,meteohub,2013-01-13 22:49:00,
2013-01-13 16:54:00,26.8,7.7,30.31,NW,319,5.0,12.0,44,0.00,,,0.00,meteohub,2013-01-13 22:54:00,
2013-01-13 16:59:00,26.4,7.5,30.31,WNW,292,4.0,12.0,44,0.00,,,0.00,meteohub,2013-01-13 22:59:00,
2013-01-13 17:04:00,26.4,7.0,30.31,WNW,295,6.0,11.0,43,0.00,,,0.00,meteohub,2013-01-13 23:04:00,
2013-01-13 17:09:00,26.2,7.3,30.32,NW,304,3.0,11.0,44,0.00,,,0.00,meteohub,2013-01-13 23:09:00,
2013-01-13 17:14:00,26.2,7.3,30.32,NW,311,2.0,11.0,44,0.00,,,0.00,meteohub,2013-01-13 23:14:00,
2013-01-13 17:19:00,26.1,7.2,30.31,WNW,286,3.0,12.0,44,0.00,,,0.00,meteohub,2013-01-13 23:19:00,
2013-01-13 17:24:00,26.1,7.2,30.32,NW,311,4.0,12.0,44,0.00,,,0.00,meteohub,2013-01-13 23:24:00,
2013-01-13 17:29:00,26.1,7.2,30.32,NW,315,4.0,10.0,44,0.00,,,0.00,meteohub,2013-01-13 23:29:00,
2013-01-13 17:34:00,25.9,7.5,30.32,WNW,295,5.0,10.0,45,0.00,,,0.00,meteohub,2013-01-13 23:34:00,
2013-01-13 17:39:00,25.9,7.5,30.32,West,280,4.0,7.0,45,0.00,,,0.00,meteohub,2013-01-13 23:39:00,
2013-01-13 17:44:00,25.7,7.3,30.31,NW,317,4.0,7.0,45,0.00,,,0.00,meteohub,2013-01-13 23:44:00,
2013-01-13 17:49:00,25.7,7.3,30.32,NW,309,2.0,7.0,45,0.00,,,0.00,meteohub,2013-01-13 23:49:00,
2013-01-13 17:54:00,25.5,7.2,30.31,West,265,5.0,7.0,45,0.00,,,0.00,meteohub,2013-01-13 23:54:00,
2013-01-13 17:59:00,25.3,7.0,30.31,NW,311,4.0,7.0,45,0.00,,,0.00,meteohub,2013-01-13 23:59:00,
2013-01-13 18:04:00,25.3,7.5,30.31,WNW,301,2.0,7.0,46,0.00,,,0.00,meteohub,2013-01-14 00:04:00,
2013-01-13 18:09:00,25.2,7.7,30.31,WNW,303,1.0,9.0,47,0.00,,,0.00,meteohub,2013-01-14 00:09:00,
2013-01-13 18:14:00,25.2,7.7,30.31,NW,314,4.0,9.0,47,0.00,,,0.00,meteohub,2013-01-14 00:14:00,
2013-01-13 18:19:00,25.2,7.7,30.31,NW,311,2.0,9.0,47,0.00,,,0.00,meteohub,2013-01-14 00:19:00,
2013-01-13 18:24:00,25.0,7.5,30.31,WNW,298,3.0,7.0,47,0.00,,,0.00,meteohub,2013-01-14 00:24:00,
2013-01-13 18:29:00,25.0,8.1,30.32,West,281,3.0,7.0,48,0.00,,,0.00,meteohub,2013-01-14 00:29:00,
2013-01-13 18:34:00,24.8,7.9,30.32,WNW,290,2.0,7.0,48,0.00,,,0.00,meteohub,2013-01-14 00:34:00,
2013-01-13 18:39:00,24.6,8.2,30.32,NW,323,3.0,4.0,49,0.00,,,0.00,meteohub,2013-01-14 00:39:00,
2013-01-13 18:44:00,24.6,8.2,30.32,NW,310,3.0,4.0,49,0.00,,,0.00,meteohub,2013-01-14 00:44:00,
2013-01-13 18:49:00,24.6,8.2,30.33,West,281,1.0,4.0,49,0.00,,,0.00,meteohub,2013-01-14 00:49:00,
2013-01-13 18:54:00,24.6,8.2,30.33,WNW,285,3.0,4.0,49,0.00,,,0.00,meteohub,2013-01-14 00:54:00,
2013-01-13 18:59:00,24.4,8.1,30.34,West,279,2.0,4.0,49,0.00,,,0.00,meteohub,2013-01-14 00:59:00,
2013-01-13 19:04:00,24.4,8.1,30.34,WNW,290,3.0,4.0,49,0.00,,,0.00,meteohub,2013-01-14 01:04:00,
2013-01-13 19:10:00,24.3,8.2,30.34,WNW,300,0.0,4.0,50,0.00,,,0.00,meteohub,2013-01-14 01:10:00,
2013-01-13 19:15:00,24.3,8.2,30.34,WNW,290,1.0,4.0,50,0.00,,,0.00,meteohub,2013-01-14 01:15:00,
2013-01-13 19:20:00,24.1,8.1,30.34,WNW,297,1.0,4.0,50,0.00,,,0.00,meteohub,2013-01-14 01:20:00,
2013-01-13 19:25:00,24.1,8.6,30.34,WNW,291,1.0,3.0,51,0.00,,,0.00,meteohub,2013-01-14 01:25:00,
2013-01-13 19:30:00,23.9,7.9,30.34,WNW,295,0.0,3.0,50,0.00,,,0.00,meteohub,2013-01-14 01:30:00,
2013-01-13 19:35:00,23.7,7.9,30.33,WNW,302,1.0,3.0,50,0.00,,,0.00,meteohub,2013-01-14 01:35:00,
2013-01-13 19:40:00,23.5,7.7,30.34,WNW,300,3.0,3.0,50,0.00,,,0.00,meteohub,2013-01-14 01:40:00,
2013-01-13 19:45:00,23.5,7.7,30.34,WNW,291,1.0,3.0,50,0.00,,,0.00,meteohub,2013-01-14 01:45:00,
2013-01-13 19:50:00,23.5,8.1,30.34,WNW,298,0.0,3.0,51,0.00,,,0.00,meteohub,2013-01-14 01:50:00,
2013-01-13 19:55:00,23.5,8.1,30.34,NW,316,2.0,3.0,51,0.00,,,0.00,meteohub,2013-01-14 01:55:00,
2013-01-13 20:00:00,23.4,7.9,30.34,NW,314,0.0,3.0,51,0.00,,,0.00,meteohub,2013-01-14 02:00:00,
2013-01-13 20:05:00,23.4,8.4,30.34,NW,316,0.0,3.0,52,0.00,,,0.00,meteohub,2013-01-14 02:05:00,
2013-01-13 20:10:00,23.2,8.2,30.34,NW,309,1.0,3.0,52,0.00,,,0.00,meteohub,2013-01-14 02:10:00,
2013-01-13 20:15:00,23.2,8.2,30.34,WNW,293,1.0,3.0,52,0.00,,,0.00,meteohub,2013-01-14 02:15:00,
2013-01-13 20:20:00,22.8,7.9,30.34,NW,312,1.0,3.0,52,0.00,,,0.00,meteohub,2013-01-14 02:20:00,
2013-01-13 20:25:00,22.8,8.2,30.34,NW,311,1.0,3.0,53,0.00,,,0.00,meteohub,2013-01-14 02:25:00,
2013-01-13 20:30:00,23.0,8.4,30.34,NW,313,0.0,3.0,53,0.00,,,0.00,meteohub,2013-01-14 02:30:00,
2013-01-13 20:35:00,22.8,7.9,30.34,WNW,282,2.0,3.0,52,0.00,,,0.00,meteohub,2013-01-14 02:35:00,
2013-01-13 20:40:00,22.8,8.2,30.34,NW,313,3.0,4.0,53,0.00,,,0.00,meteohub,2013-01-14 02:40:00,
2013-01-13 20:45:00,22.8,8.2,30.34,NW,325,3.0,4.0,53,0.00,,,0.00,meteohub,2013-01-14 02:45:00,
2013-01-13 20:50:00,22.8,8.2,30.34,NW,304,2.0,4.0,53,0.00,,,0.00,meteohub,2013-01-14 02:50:00,
2013-01-13 20:55:00,22.6,8.4,30.34,NW,325,4.0,4.0,54,0.00,,,0.00,meteohub,2013-01-14 02:55:00,
2013-01-13 21:00:00,22.5,8.2,30.35,NW,306,2.0,7.0,54,0.00,,,0.00,meteohub,2013-01-14 03:00:00,
2013-01-13 21:05:00,22.5,8.2,30.35,NNW,338,2.0,7.0,54,0.00,,,0.00,meteohub,2013-01-14 03:05:00,
2013-01-13 21:10:00,22.3,8.2,30.35,NW,306,3.0,7.0,54,0.00,,,0.00,meteohub,2013-01-14 03:10:00,
2013-01-13 21:15:00,22.3,8.2,30.36,NW,321,3.0,7.0,54,0.00,,,0.00,meteohub,2013-01-14 03:15:00,
2013-01-13 21:20:00,22.3,8.6,30.36,NW,316,3.0,6.0,55,0.00,,,0.00,meteohub,2013-01-14 03:20:00,
2013-01-13 21:25:00,22.1,8.8,30.35,WNW,286,3.0,6.0,56,0.00,,,0.00,meteohub,2013-01-14 03:25:00,
2013-01-13 21:30:00,21.7,8.4,30.36,WNW,297,1.0,6.0,56,0.00,,,0.00,meteohub,2013-01-14 03:30:00,
2013-01-13 21:35:00,21.7,8.4,30.37,West,277,3.0,6.0,56,0.00,,,0.00,meteohub,2013-01-14 03:35:00,
2013-01-13 21:40:00,21.6,8.6,30.37,WNW,283,2.0,6.0,57,0.00,,,0.00,meteohub,2013-01-14 03:40:00,
2013-01-13 21:45:00,21.6,8.6,30.37,WNW,286,1.0,6.0,57,0.00,,,0.00,meteohub,2013-01-14 03:45:00,
2013-01-13 21:50:00,21.2,8.4,30.38,NW,308,4.0,4.0,57,0.00,,,0.00,meteohub,2013-01-14 03:50:00,
2013-01-13 21:55:00,21.0,8.6,30.38,WNW,284,2.0,4.0,58,0.00,,,0.00,meteohub,2013-01-14 03:55:00,
2013-01-13 22:00:00,21.0,8.6,30.38,NNW,344,3.0,5.0,58,0.00,,,0.00,meteohub,2013-01-14 04:00:00,
2013-01-13 22:05:00,21.0,8.6,30.38,NW,304,4.0,5.0,58,0.00,,,0.00,meteohub,2013-01-14 04:05:00,
2013-01-13 22:10:00,21.0,9.0,30.37,NW,318,3.0,5.0,59,0.00,,,0.00,meteohub,2013-01-14 04:10:00,
2013-01-13 22:15:00,21.0,9.0,30.37,WNW,300,3.0,5.0,59,0.00,,,0.00,meteohub,2013-01-14 04:15:00,
2013-01-13 22:20:00,21.0,9.0,30.37,WNW,293,6.0,9.0,59,0.00,,,0.00,meteohub,2013-01-14 04:20:00,
2013-01-13 22:25:00,21.0,8.6,30.37,NW,306,6.0,9.0,58,0.00,,,0.00,meteohub,2013-01-14 04:25:00,
2013-01-13 22:30:00,21.0,8.2,30.37,NW,321,4.0,9.0,57,0.00,,,0.00,meteohub,2013-01-14 04:30:00,
2013-01-13 22:35:00,21.0,8.2,30.38,NW,324,6.0,9.0,57,0.00,,,0.00,meteohub,2013-01-14 04:35:00,
2013-01-13 22:40:00,21.0,8.6,30.38,WNW,295,6.0,10.0,58,0.00,,,0.00,meteohub,2013-01-14 04:40:00,
2013-01-13 22:45:00,20.8,8.4,30.38,WNW,301,6.0,10.0,58,0.00,,,0.00,meteohub,2013-01-14 04:45:00,
2013-01-13 22:50:00,20.8,8.8,30.38,NNW,341,3.0,9.0,59,0.00,,,0.00,meteohub,2013-01-14 04:50:00,
2013-01-13 22:55:00,20.7,8.2,30.38,NW,304,6.0,9.0,58,0.00,,,0.00,meteohub,2013-01-14 04:55:00,
2013-01-13 23:00:00,20.5,8.1,30.38,WNW,292,2.0,9.0,58,0.00,,,0.00,meteohub,2013-01-14 05:00:00,
2013-01-13 23:07:00,20.1,8.1,30.39,NW,304,2.0,9.0,59,0.00,,,0.00,meteohub,2013-01-14 05:07:00,
2013-01-13 23:15:00,19.9,7.9,30.39,NW,306,4.0,10.0,59,0.00,,,0.00,meteohub,2013-01-14 05:15:00,
2013-01-13 23:20:00,19.9,7.9,30.38,NW,319,4.0,10.0,59,0.00,,,0.00,meteohub,2013-01-14 05:20:00,
2013-01-13 23:25:00,19.9,8.6,30.38,West,280,6.0,10.0,61,0.00,,,0.00,meteohub,2013-01-14 05:25:00,
2013-01-13 23:30:00,19.8,8.1,30.38,NW,320,6.0,9.0,60,0.00,,,0.00,meteohub,2013-01-14 05:30:00,
2013-01-13 23:35:00,19.6,8.2,30.39,NW,309,6.0,9.0,61,0.00,,,0.00,meteohub,2013-01-14 05:35:00,
2013-01-13 23:40:00,19.4,8.1,30.39,NW,304,5.0,9.0,61,0.00,,,0.00,meteohub,2013-01-14 05:40:00,
2013-01-13 23:45:00,19.2,8.1,30.39,NW,318,2.0,9.0,61,0.00,,,0.00,meteohub,2013-01-14 05:45:00,
2013-01-13 23:50:00,19.2,8.4,30.39,WNW,289,3.0,7.0,62,0.00,,,0.00,meteohub,2013-01-14 05:50:00,
2013-01-13 23:55:00,19.0,8.2,30.39,NNW,335,3.0,7.0,62,0.00,,,0.00,meteohub,2013-01-14 05:55:00,